KE9LZ Weather Reports


time (UTC)temp
C
wind
direction
speed
KPH
gust
KPH
rain 1hr
cm
rain 24hr
cm
rain mn
cm
humidity
%
barometer
mb
20260831133004 23 102 3.2 11.3 0.00 0.28 0.28 91 1014.6
20260831132004 22 105 3.2 9.7 0.00 0.28 0.28 95 1014.8
20260831130004 21 97 4.8 8.0 0.00 0.28 0.28 95 1015.0
20260831125003 21 67 3.2 8.0 0.00 0.28 0.28 96 1014.9
20260831123003 21 78 1.6 4.8 0.00 0.28 0.28 98 1015.1
20260831122004 21 125 3.2 8.0 0.00 0.28 0.28 99 1014.8
20260831120003 21 319 1.6 8.0 0.00 0.28 0.28 99 1015.1
20260831115004 21 130 3.2 8.0 0.00 0.28 0.28 99 1014.9
20260831114004 21 115 4.8 11.3 0.00 0.28 0.28 99 1014.9
20260831113003 20 152 4.8 9.7 0.00 0.28 0.28 99 1014.8
20260831112004 20 115 4.8 8.0 0.00 0.28 0.28 99 1015.0
20260831111004 20 94 4.8 8.0 0.00 0.28 0.28 99 1014.8
20260831110003 20 81 3.2 8.0 0.00 0.28 0.28 99 1015.1
20260831103004 20 103 3.2 8.0 0.10 0.28 0.28 99 1015.1
20260831100004 21 106 3.2 11.3 0.23 0.28 0.28 99 1015.6
20260831095004 21 109 4.8 8.0 0.18 0.20 0.20 99 1016.0
20260831094004 21 95 1.6 4.8 0.15 0.18 0.18 99 1016.0
20260831093004 21 81 4.8 4.8 0.13 0.18 0.18 99 1015.7
20260831092003 21 56 1.6 3.2 0.13 0.15 0.15 99 1015.9
20260831090004 21 85 1.6 4.8 0.00 0.05 0.05 99 1015.8
20260831083004 21 110 1.6 3.2 0.00 0.05 0.05 99 1015.9
20260831082003 21 92 1.6 3.2 0.00 0.05 0.05 99 1016.0
20260831081004 21 99 1.6 3.2 0.00 0.05 0.05 99 1015.7
20260831075004 21 112 1.6 4.8 0.00 0.05 0.05 99 1015.7
20260831073003 21 102 3.2 3.2 0.00 0.05 0.05 99 1016.1
20260831071003 21 90 3.2 4.8 0.00 0.05 0.05 99 1016.5
20260831070003 21 85 3.2 3.2 0.05 0.05 0.05 98 1016.9
20260831065003 21 110 1.6 3.2 0.05 0.05 0.05 98 1017.0
20260831064003 21 128 3.2 9.7 0.05 0.05 0.05 98 1017.1
20260831063004 21 180 4.8 4.8 0.05 0.05 0.05 98 1017.5
20260831062004 21 173 3.2 4.8 0.05 0.05 0.05 97 1017.6
20260831061004 21 192 3.2 8.0 0.03 0.03 0.03 96 1017.7
20260831053004 22 129 1.6 8.0 0.00 0.00 0.00 94 1017.6
20260831052004 22 196 4.8 9.7 0.00 0.00 0.00 94 1017.8
20260831051003 22 200 3.2 8.0 0.00 0.00 0.00 94 1017.5
20260831044003 22 277 1.6 3.2 0.00 0.00 0.00 93 1017.4
20260831043004 22 71 0.0 3.2 0.00 0.00 0.00 93 1017.3
20260831042004 22 119 0.0 3.2 0.00 0.00 0.00 93 1017.0
20260831040004 22 84 0.0 3.2 0.00 0.00 0.00 93 1017.1
20260831035004 22 103 1.6 1.6 0.00 0.00 0.00 93 1017.1
20260831034003 22 94 1.6 3.2 0.00 0.00 0.00 93 1017.3
20260831033004 22 84 1.6 4.8 0.00 0.00 0.00 92 1017.2
20260831032004 22 103 1.6 3.2 0.00 0.00 0.00 92 1017.1
20260831030004 22 124 1.6 3.2 0.00 0.00 0.00 91 1017.0
20260831025004 22 95 0.0 3.2 0.00 0.00 0.00 91 1017.0
20260831022003 22 72 3.2 8.0 0.00 0.00 0.00 89 1016.9
20260831021004 22 83 1.6 9.7 0.00 0.00 0.00 88 1016.8
20260831020004 22 80 3.2 8.0 0.00 0.00 0.00 88 1016.5
20260831014004 22 113 1.6 3.2 0.00 0.00 0.00 88 1016.5
20260831013004 23 92 1.6 3.2 0.00 0.00 0.00 87 1016.8
20260831012003 23 126 1.6 4.8 0.00 0.00 0.00 87 1016.8
20260831011004 23 86 4.8 8.0 0.00 0.00 0.00 87 1016.5
20260831010004 23 84 3.2 4.8 0.00 0.00 0.00 88 1016.4
20260831005004 23 73 1.6 4.8 0.00 0.00 0.00 89 1016.3
20260831003004 23 115 1.6 4.8 0.00 0.00 0.00 88 1016.2
20260831002004 23 40 3.2 9.7 0.00 0.00 0.00 89 1016.1
20260831000003 23 2 4.8 9.7 0.00 0.00 0.00 88 1016.2
20260830235003 24 19 4.8 9.7 0.00 0.00 0.00 87 1016.0
20260830234004 24 340 1.6 8.0 0.00 0.00 0.00 86 1015.7
20260830233004 24 35 3.2 3.2 0.00 0.00 0.00 86 1015.8
20260830232004 24 39 4.8 8.0 0.00 0.00 0.00 86 1016.0
20260830231004 24 21 3.2 8.0 0.00 0.00 0.00 86 1015.4
20260830230003 24 24 6.4 9.7 0.00 0.00 0.00 86 1015.5
20260830225003 24 29 4.8 12.9 0.00 0.00 0.00 85 1015.6
20260830224004 24 353 4.8 9.7 0.00 0.00 0.00 84 1015.4
20260830222003 25 31 3.2 9.7 0.00 0.00 0.00 81 1015.1
20260830221004 25 46 3.2 9.7 0.00 0.00 0.00 80 1015.0
20260830220004 25 8 4.8 11.3 0.00 0.00 0.00 79 1015.0
20260830214003 25 7 4.8 12.9 0.00 0.00 0.00 78 1015.1
20260830213004 25 21 3.2 11.3 0.00 0.00 0.00 78 1015.3
20260830211004 25 11 6.4 11.3 0.00 0.00 0.00 78 1015.3
20260830210004 25 66 3.2 8.0 0.00 0.00 0.00 79 1015.6
20260830205003 25 33 3.2 4.8 0.00 0.00 0.00 78 1015.8
20260830203004 25 39 4.8 8.0 0.00 0.03 0.00 78 1015.7
20260830202004 26 3 1.6 8.0 0.00 0.03 0.00 76 1015.4
20260830201004 26 63 3.2 4.8 0.00 0.05 0.00 76 1015.5
20260830200004 27 30 4.8 4.8 0.00 0.05 0.00 69 1015.0
20260830194004 27 30 4.8 4.8 0.00 0.05 0.00 69 1015.0
20260830193003 27 30 4.8 4.8 0.00 0.05 0.00 69 1015.0
20260830192003 27 30 4.8 4.8 0.00 0.05 0.00 69 1015.0
20260830191003 27 30 4.8 4.8 0.00 0.05 0.00 69 1015.0
20260830190003 27 30 4.8 4.8 0.00 0.05 0.00 69 1015.0
20260830185003 27 30 4.8 4.8 0.00 0.08 0.00 69 1015.0
20260830184004 27 30 4.8 4.8 0.00 0.08 0.00 69 1015.0
20260830182003 27 30 4.8 4.8 0.00 0.08 0.00 69 1015.0
20260830181003 27 30 4.8 11.3 0.00 0.08 0.00 69 1015.0
20260830180004 28 267 4.8 12.9 0.00 0.08 0.00 68 1015.0
20260830175004 29 286 4.8 12.9 0.00 0.10 0.00 62 1015.2
20260830174004 28 319 1.6 9.7 0.00 0.10 0.00 63 1015.2
20260830173004 28 288 3.2 9.7 0.00 0.10 0.00 63 1015.1
20260830171003 27 243 4.8 14.5 0.00 0.10 0.00 66 1015.2
20260830165004 26 0 3.2 9.7 0.00 0.10 0.00 71 1015.6
20260830163004 26 285 3.2 11.3 0.00 0.10 0.00 72 1015.5
20260830162003 26 299 6.4 9.7 0.00 0.10 0.00 72 1015.9
20260830161004 25 204 4.8 12.9 0.00 0.13 0.00 74 1016.1
20260830160003 25 208 4.8 9.7 0.00 0.15 0.00 75 1016.1
20260830153004 25 210 4.8 11.3 0.00 0.15 0.00 77 1016.1
20260830152003 24 192 4.8 12.9 0.00 0.15 0.00 78 1015.9
20260830151004 24 200 8.0 11.3 0.00 0.15 0.00 78 1016.3
20260830150003 24 228 3.2 14.5 0.00 0.15 0.00 79 1016.2
20260830145004 23 207 3.2 11.3 0.00 0.15 0.00 79 1016.1
20260830144004 23 202 6.4 11.3 0.00 0.15 0.00 79 1016.1
20260830143004 23 119 3.2 8.0 0.00 0.15 0.00 81 1015.9
20260830141004 23 122 3.2 14.5 0.00 0.15 0.00 83 1016.0
20260830140003 22 183 4.8 9.7 0.00 0.15 0.00 83 1016.4
20260830135003 22 159 4.8 9.7 0.00 0.15 0.00 84 1016.5
20260830134004 22 171 3.2 4.8 0.00 0.15 0.00 86 1016.8